Regional Weather Roundup
Issued by NWS

Home | Current Version | Previous Version | Text Only | Print | Product List | Glossary On
Versions: 1 2 3 4 5 6 7 8 9 10 11 12 13 14 15 16 17 18 19 20 21 22 23 24 25 26 27 28 29 30 31 32 33 34 35 36 37 38 39 40 41 42 43 44 45 46 47 48 49 50
000
ASUS43 KMKX 031021
RWRWI

WISCONSIN REGIONAL WEATHER ROUNDUP
NATIONAL WEATHER SERVICE MILWAUKEE/SULLIVAN WI
500 AM CDT FRI JUL 03 2015

NOTE: "FAIR" INDICATES FEW OR NO CLOUDS BELOW 12,000 FEET WITH NO
SIGNIFICANT WEATHER AND/OR OBSTRUCTIONS TO VISIBILITY.

WIZ001-002-006>008-014>016-023>028-031100-
NORTHWEST WISCONSIN

CITY           SKY/WX    TMP DP  RH WIND       PRES   REMARKS
SUPERIOR ARPT  MOCLDY    59  56  89 SW6       29.92R
ASHLAND        CLOUDY    61  56  83 SW7       29.93R
HAYWARD        CLEAR     51  48  89 CALM      29.97S
SIREN          CLEAR     60  54  80 SW3       29.96S
CUMBERLAND     CLEAR     52  52 100 S5        29.98S
RICE LAKE      CLEAR     53  51  95 CALM      29.99F
CHETEK         CLEAR     52  52 100 CALM      29.99S
LADYSMITH      CLEAR     53  52  95 CALM      30.00F
EAU CLAIRE     PTCLDY    55  53  93 CALM      29.98S FOG
MENOMONIE      CLEAR     55  55  98 CALM      29.99S
NEW RICHMOND   CLEAR     54  53  99 CALM      29.99S
OSCEOLA        CLEAR     55  55 100 CALM      30.00F
$$

WIZ003>005-009-010-017-018-031100-
NORTH CENTRAL WISCONSIN

CITY           SKY/WX    TMP DP  RH WIND       PRES   REMARKS
MANITOWISH WTR CLEAR     54  53  94 SW5       29.97F
ARBOR VITAE    CLEAR     54  51  88 SW5       29.99R
WOODRUFF       CLEAR     54  51  88 SW5       29.99R
RHINELANDER    CLEAR     56  50  80 SW9       30.00S
EAGLE RIVER    CLEAR     54  52  94 CALM      29.99R
LAND O LAKES   CLEAR     52  52 100 CALM      29.99S
PHILLIPS       CLEAR     54  50  89 SW5       29.99S
TOMAHAWK       CLEAR     48  47  96 CALM      30.00F
MEDFORD        CLEAR     54  49  82 CALM      30.00F
MERRILL        CLEAR     46  46  99 CALM      30.01S
$$

WIZ029-030-035-036-043>047-031100-
CENTRAL WISCONSIN

CITY           SKY/WX    TMP DP  RH WIND       PRES   REMARKS
WAUSAU         CLEAR     52  49  89 E3        30.00R
MOSINEE        CLEAR     52  48  87 CALM      30.02S
MARSHFIELD     CLEAR     54  48  80 CALM      30.01S
STEVENS POINT  CLEAR     45  44  96 CALM      30.02R
WAUPACA        PTCLDY    50  49  97 CALM      30.01S
WAUTOMA        PTCLDY    47  47 100 CALM      30.02R
WISC RAPIDS    CLEAR     50  46  86 CALM      30.02S
CAMP DOUGLAS   PTCLDY    45  45 100 SE2       30.00S
$$

WIZ011>013-019>022-031-037>040-048>050-031100-
NORTHEAST WISCONSIN

CITY           SKY/WX    TMP DP  RH WIND       PRES   REMARKS
ANTIGO         CLEAR     47  47  97 CALM      30.01F
SHAWANO        CLEAR     51  49  92 CALM      30.00S
OCONTO         CLEAR     46  46 100 CALM      29.99S
STURGEON BAY   CLEAR     52  43  71 SW6       30.01S
GREEN BAY      CLEAR     51  48  89 CALM      30.00S
MANITOWOC      CLEAR     50  48  93 MISG      30.01R
APPLETON       PTCLDY    52  48  87 W7        30.01R
CLINTONVILLE   CLEAR     48  46  93 CALM      30.01R
OSHKOSH        PTCLDY    53  45  74 CALM      30.00R
$$

WIZ032>034-041-042-053>061-031100-
SOUTHWEST WISCONSIN

CITY           SKY/WX    TMP DP  RH WIND       PRES   REMARKS
LA CROSSE      PTCLDY    55  53  93 E5        30.00R
SPARTA         PTCLDY    45  44  96 CALM      30.02R
VIROQUA        PTCLDY    55  52  89 CALM      30.02R
BOSCOBEL       FOG       55  54  96 CALM      30.01R VSB 1/4
PRAIRIE DU CHI PTCLDY    53  51  95 E3        30.00R
PLATTEVILLE    PTCLDY    54  51  89 E6        30.00R
$$

WIZ056-057-062-063-064-067-068-031100-
SOUTH CENTRAL WISCONSIN

CITY           SKY/WX    TMP DP  RH WIND       PRES   REMARKS
REEDSBURG      PTCLDY    50  50  99 CALM      30.00S
BARABOO/DELLS  PTCLDY    48  46  91 CALM      30.01R
LONE ROCK      FOG       50  49  96 CALM      30.02R VSB 1/4
MINERAL POINT  PTCLDY    55  50  82 CALM      30.00S
MADISON        PTCLDY    50  47  89 CALM      30.00R
MIDDLETON      PTCLDY    51  50  97 CALM      30.01R
WATERTOWN      PTCLDY    50  50  99 CALM      30.00R
MONROE         FAIR      54  50  87 N5        29.99S
JANESVILLE     MOCLDY    52  50  93 CALM      29.98S
$$

WIZ051-052-058>065-066-070>072-031100-
SOUTHEAST WISCONSIN

CITY           SKY/WX    TMP DP  RH WIND       PRES   REMARKS
MILWAUKEE      PTCLDY    55  47  74 NW3       30.00R
WAUKESHA       PTCLDY    46  43  87 CALM      30.00S
MILWAUKEE/TIMM PTCLDY    52  43  71 CALM      30.00S
RACINE         MOCLDY    54  48  80 CALM      30.00S
BURLINGTON     MOCLDY    46  46  97 CALM      29.99S
KENOSHA        MOCLDY    51  47  86 N3        29.99R
FOND DU LAC    PTCLDY    50  47  89 CALM      30.01R
SHEBOYGAN      PTCLDY    49  45  86 CALM      30.00R
WEST BEND      PTCLDY    46  45  93 CALM      30.00S FOG
JUNEAU         PTCLDY    49  47  93 CALM      30.02R
$$

LSZ147-162-031100-
LAKE SUPERIOR

STATION/POSITION TIME  TEMP    WIND        PRES    WAVE
                       AIR SEA DIR/SP/G            HT/PER
                 (UTC) (F)     (DEG/KT/KT) (MB)    (FT/S)
W MID LAKE BUOY  0950   47 38  210/ 14/ 14 1011.3F   1/ 3
DEVILS ISLAND    1000   64     230/ 15/ 17 1011.8F
SAXON HARBOR     0900   62     200/  3/  6 1012.9F
$$

LMZ867-665-643>646-031100-
LAKE MICHIGAN

STATION/POSITION TIME  TEMP    WIND        PRES    WAVE
                       AIR SEA DIR/SP/G            HT/PER
                 (UTC) (F)     (DEG/KT/KT) (MB)    (FT/S)
CHAMBERS ISLAND  0900   62     200/  2/  6 1015.2S
S GREEN BAY BUOY 1000   65 68  230/ 10/ 12 1016.7
N MID LAKE BUOY  0950   52 45  210/  8/  8 1015.2F   0
NORTHPORT PIER   0900   61     200/  3/  8 1015.6R
SISTER BAY       0814   62     210/ 10/ 12   N/A
ALGOMA LAKESHORE 0910          320/  5/  6   N/A
KEWAUNEE LAKESHO 1000   51     310/  5/  7 1015.0R
SHEBOYGAN LAKESH 1000   56     300/  3/  3 1016.2R
PORT WASHINGTON  0940   53     270/  3/  4 1016.6R
ATWATER BUOY     1000   58     310/  2/  4 1017.0R
MILWAUKEE LAKESH 1000   57     330/  2/  3   N/A
KENOSHA   LAKESH 1000   57     330/  3/  5 1015.2S
$$

TC  - TEMPERATURE IN CELSIUS
VSB - VISIBILITY IN STATUTE MILES
WCI - WIND CHILL INDEX
HX  - HEAT INDEX



USA.gov is the U.S. government's official web portal to all federal, state and local government web resources and services.